Location: Abundant Grace Fellowship
(35.0349°N, 90.0924°W)
Time: 09:28:18
(UTC+00:00)

CZ-3C R/B - Pass Details

Date: 18 January 2026
Orbit: 291 x 31873 km, 20.7° (Epoch: 9 February)

Event Time Altitude Azimuth Distance (km) Brightness Sun altitude
Exits shadow 10:21:05 22° 184° (S) 2,312 3.9 -33.7°
Maximum altitude 10:22:48 24° 164° (SSE) 2,705 4.4 -33.3°
Drops below altitude 10° 10:37:31 10° 119° (ESE) 8,311 7.5 -30.3°
Sets 11:00:13 0° 111° (ESE) 15,484 9.4 -25.7°
